Wind_Speed
6 4 4 5 4 5 5 6 5 3 3 2 1 2 3 4 3 1 5 6 1 4 7 4 4 7 7 5 6 9 11 13 14 15 16 19 21 21 20 22 29 33 30 28 29 28 28 28 27 23 20 21 22 21 21 21 20 22 22 21 20 21 24 24 23 23 21 19 18 18 18 17 17 15 14 12 11 11 11 10 10 10 10 9 9 9
4 5 4 4 5 5 4 5 4 4 3 2 3 4 4 3 3 3 7 7 1 4 5 2 4 8 9 6 5 7 9 13 17 18 19 22 22 21 21 21 25 30 31 30 30 30 28 25 25 25 20 21 23 22 22 21 21 23 23 21 20 20 23 24 24 23 21 19 19 19 18 17 16 15 14 12 11 11 11 11 11 10 10 9 9 9
3 5 4 5 5 5 4 4 5 4 3 3 2 4 5 2 1 4 5 4 1 4 4 2 4 9 11 5 4 8 11 15 20 23 23 24 24 23 23 23 23 27 31 32 32 32 28 22 23 25 23 23 24 22 22 21 22 24 23 22 20 19 22 24 24 23 21 19 18 18 17 16 16 16 14 12 11 11 11 11 11 10 9 9 9 8
3 4 5 6 6 6 4 3 5 3 2 3 3 4 5 1 0 4 2 0 2 4 5 5 5 8 9 4 4 10 14 14 15 20 23 23 24 24 24 25 26 29 32 32 33 33 29 23 22 24 26 26 25 23 22 21 22 25 23 21 19 18 22 24 23 22 20 19 18 17 16 16 16 16 15 13 13 12 12 11 11 10 10 9 8 8
3 1 5 7 5 6 4 3 5 3 3 3 5 6 5 2 5 6 2 2 4 4 4 5 6 6 5 2 3 5 8 11 9 12 20 22 22 21 21 25 27 29 30 28 29 33 30 25 23 23 26 27 26 25 23 21 23 23 21 20 20 20 22 23 22 21 20 20 20 19 18 17 17 16 15 15 14 13 12 12 12 11 10 9 9 9
5 4 8 7 3 6 5 4 6 5 4 3 5 9 10 9 9 7 1 2 4 3 2 2 5 3 0 1 3 1 4 10 8 10 18 23 23 20 21 25 27 27 27 25 26 29 28 25 23 22 26 29 27 26 25 24 23 23 21 20 20 21 22 22 21 21 21 21 21 21 20 20 19 18 17 15 13 12 12 13 12 11 11 10 11 10
3 5 8 6 5 7 6 4 5 6 4 2 3 9 12 11 7 5 4 3 3 2 1 1 4 3 1 3 4 1 4 9 9 11 16 20 23 24 25 26 27 27 26 25 24 24 26 27 26 25 28 30 29 28 26 24 23 23 22 21 22 22 23 23 23 23 22 22 22 22 21 21 19 18 17 14 11 12 13 13 13 12 12 12 11 11
2 5 5 5 5 6 5 4 5 8 5 1 1 5 7 8 7 7 7 6 3 3 1 2 3 4 4 4 2 1 6 8 10 13 15 18 22 25 26 27 28 28 26 25 24 23 24 27 26 25 28 30 29 28 27 25 24 23 23 22 23 23 24 24 25 25 23 22 23 23 21 20 18 16 16 15 13 13 13 13 13 13 12 12 12 11
3 6 7 7 5 4 5 4 7 11 6 2 3 4 5 5 6 7 6 5 2 2 4 3 3 4 4 3 2 1 5 8 9 11 12 15 20 24 25 26 26 25 24 23 22 21 21 21 20 20 25 30 29 28 27 26 25 24 24 22 22 23 24 25 26 25 23 22 23 23 21 20 19 17 16 16 15 14 14 14 13 13 12 11 11 11
2 5 8 8 6 6 7 4 9 13 6 1 6 5 3 3 3 4 4 3 3 3 6 4 5 5 4 2 2 1 4 5 4 5 8 11 17 22 24 24 22 21 20 19 17 18 18 16 17 18 23 27 26 25 25 25 25 24 24 22 22 23 22 25 27 25 24 24 24 23 21 21 21 19 17 16 15 14 15 14 13 13 12 11 11 11
2 1 3 5 6 5 5 3 7 11 5 4 6 4 3 3 2 2 1 1 3 5 4 4 6 5 3 2 3 1 1 3 4 4 5 8 13 19 21 20 19 18 17 15 15 17 16 15 17 19 21 22 22 22 23 24 24 24 24 23 22 22 21 25 29 27 26 26 24 23 22 22 21 19 17 16 15 15 15 14 13 12 11 11 11 11
1 1 1 5 8 4 3 3 3 4 3 2 2 2 2 1 2 1 1 1 4 5 0 1 4 5 5 3 1 1 3 5 6 7 7 7 11 14 16 16 16 16 16 16 18 20 20 20 22 23 23 22 21 21 21 21 22 21 21 21 20 20 20 24 28 27 27 27 24 23 23 21 19 17 16 15 15 15 14 14 13 12 12 11 12 12
2 4 2 3 6 6 4 2 2 2 3 3 2 2 2 1 2 2 2 2 4 4 1 1 2 3 6 4 4 4 5 6 7 9 10 10 10 11 13 13 13 15 17 18 20 24 25 25 26 26 26 24 21 19 17 17 17 15 14 16 19 20 19 21 26 27 27 27 24 23 22 20 18 15 14 14 14 14 14 13 12 12 13 12 12 13
3 3 2 2 3 8 8 5 4 3 5 6 5 5 4 3 2 2 2 1 4 3 1 2 3 2 4 1 5 5 6 8 10 11 11 10 9 9 10 10 12 14 17 19 21 22 23 23 21 21 21 19 16 14 14 16 15 15 15 16 18 18 18 19 24 27 27 26 24 23 22 19 16 14 13 13 13 13 13 13 12 12 12 12 12 12
3 2 4 5 2 7 12 9 4 3 5 6 4 3 4 3 3 3 3 4 4 2 2 2 3 3 2 1 4 6 7 9 10 9 4 3 4 4 6 7 10 13 14 18 20 19 19 19 16 14 14 15 13 10 13 17 17 17 17 15 15 16 18 18 21 23 23 24 24 23 21 18 16 14 12 12 12 12 12 13 13 13 12 11 11 11
2 3 4 3 0 6 10 6 4 5 3 2 2 2 2 3 2 0 0 1 2 2 1 2 2 2 1 1 4 5 8 11 12 12 10 5 5 6 6 9 13 16 15 16 20 18 16 16 14 12 12 13 13 10 12 16 16 14 11 11 14 18 18 17 18 20 19 20 23 22 20 18 16 14 12 12 12 11 11 12 13 13 12 11 10 10
1 2 1 1 1 5 5 4 6 4 3 3 3 4 1 0 2 2 1 2 1 3 1 1 2 2 1 1 3 7 10 13 13 14 15 12 10 9 6 6 9 12 13 16 16 12 9 10 11 12 12 11 12 12 12 13 12 9 7 9 13 16 17 16 16 19 19 20 22 20 19 18 16 14 12 11 12 11 11 12 12 12 12 11 10 9
2 2 1 1 3 3 2 2 3 0 2 4 3 4 3 1 1 1 1 1 0 4 1 1 2 2 2 1 2 7 11 12 12 12 15 16 16 14 11 9 8 6 12 17 13 5 3 4 6 8 10 11 12 12 10 11 9 6 6 7 7 10 15 17 18 20 21 21 21 19 18 18 15 13 11 10 10 11 12 13 12 12 12 11 10 9
2 2 2 2 2 1 1 2 3 2 0 0 1 3 3 2 2 2 2 2 2 3 1 1 1 2 3 1 3 6 9 10 11 12 13 14 14 14 12 10 8 5 9 13 10 4 3 2 2 5 7 9 11 8 7 10 9 7 6 6 5 8 14 17 20 22 22 22 21 19 18 17 15 13 12 11 11 12 12 13 13 12 12 11 10 9
1 2 1 1 1 1 1 2 2 3 2 1 2 2 0 1 2 2 2 1 3 2 1 1 1 1 1 1 3 5 7 6 8 10 11 11 13 14 13 11 9 5 6 9 8 4 1 2 2 3 4 6 10 9 8 10 10 10 9 7 6 10 15 19 22 24 23 23 21 19 18 16 15 15 13 12 12 12 12 12 12 12 11 10 9 9
2 2 2 1 2 2 1 0 1 2 3 2 4 4 2 1 0 1 1 1 1 2 2 2 3 1 2 1 2 4 5 3 6 8 8 10 12 12 11 11 10 9 9 9 7 4 2 1 2 2 1 4 8 10 9 10 13 14 13 9 7 12 17 21 24 25 22 22 21 19 18 17 16 16 14 13 12 12 12 13 12 11 10 9 8 8
1 2 2 1 2 2 0 1 1 1 1 1 3 4 3 3 2 3 3 1 1 1 1 2 3 1 2 1 1 2 3 2 7 9 8 8 9 9 7 7 8 10 11 9 8 9 5 4 4 3 3 5 8 10 10 12 16 16 13 9 10 13 17 21 24 24 23 22 21 20 19 18 17 16 15 13 12 12 13 13 13 11 9 8 8 8
1 2 2 2 1 2 2 1 0 1 1 2 1 0 1 1 2 4 5 3 2 1 1 1 2 1 1 0 2 2 2 6 9 10 11 9 8 10 9 7 8 9 9 9 8 9 8 7 7 5 4 7 11 11 10 12 14 13 9 10 13 13 16 20 23 22 22 22 21 20 19 18 17 17 15 13 12 13 14 14 13 12 9 7 6 7
1 1 1 1 1 2 2 1 1 1 2 3 3 3 1 1 1 1 2 1 3 3 2 2 2 1 1 1 3 3 6 10 8 8 11 11 11 12 11 10 10 11 11 11 10 10 9 8 10 10 8 10 13 12 12 13 12 9 9 11 14 14 14 18 21 23 23 22 22 21 20 19 18 17 15 13 12 13 15 15 13 12 10 7 5 6
1 0 1 2 2 2 1 2 3 2 1 1 2 3 3 2 1 1 1 1 2 2 1 3 3 1 1 2 4 5 7 9 9 10 11 11 12 12 13 12 12 13 13 13 11 10 9 7 9 10 7 8 11 11 13 15 11 10 11 11 14 15 14 15 19 22 22 22 22 21 20 19 18 18 16 13 12 14 16 15 13 11 10 7 5 5
1 1 0 2 4 4 4 2 2 1 1 1 2 5 7 6 3 1 1 2 4 2 2 3 1 2 2 4 6 6 7 9 11 13 14 14 13 13 14 14 12 12 12 12 10 8 7 6 5 5 3 7 12 10 11 13 12 13 13 12 13 15 14 15 17 20 21 21 21 22 20 18 18 18 16 14 14 15 16 15 14 12 10 8 6 4
2 3 2 1 1 2 1 1 0 1 1 1 4 7 8 7 4 2 2 2 2 4 3 1 3 7 6 5 6 6 8 9 9 11 14 14 13 13 15 15 14 13 12 12 10 9 8 9 8 4 1 6 11 10 10 11 12 13 13 12 13 13 14 16 18 19 20 20 20 20 18 17 18 19 17 15 15 15 15 16 15 13 11 8 6 5
3 2 2 4 5 3 1 1 1 2 3 3 5 7 8 9 5 1 1 1 1 3 3 2 7 9 6 6 7 7 8 8 8 10 11 11 10 12 14 16 16 14 13 13 12 11 11 11 11 9 6 6 8 9 10 9 10 12 12 11 12 12 14 16 18 18 18 18 17 16 16 17 19 19 18 17 17 16 15 16 16 15 12 10 8 6
4 3 1 1 5 5 4 4 5 6 6 7 8 8 9 10 7 5 3 4 4 1 2 7 10 8 5 6 7 7 8 9 10 11 11 10 10 11 15 17 16 16 17 17 15 14 14 13 12 11 10 10 11 12 12 11 12 13 13 12 12 13 13 14 16 16 15 16 18 18 18 19 21 21 20 20 19 18 16 16 16 16 13 10 9 8
3 3 1 3 4 6 5 4 6 7 7 9 10 10 9 9 9 9 7 6 6 5 6 10 11 8 5 5 7 8 10 11 13 13 13 13 12 13 16 17 17 17 19 19 18 17 16 14 13 12 11 11 12 14 14 13 13 13 14 14 14 15 15 15 15 16 16 17 18 20 21 21 22 22 22 21 21 21 19 17 16 16 14 11 10 9
1 2 1 1 3 3 5 4 5 7 8 10 12 12 10 9 9 8 7 7 7 8 9 10 10 6 4 6 8 9 12 14 14 14 14 13 12 14 16 17 16 17 18 20 20 18 16 15 13 12 12 12 13 13 14 13 12 12 13 13 13 15 16 16 16 17 17 18 18 19 20 21 22 22 21 22 22 20 18 17 14 13 13 12 10 10
1 3 2 1 2 1 3 4 2 3 6 8 11 13 12 8 6 5 5 4 4 4 8 7 5 3 4 6 9 11 14 16 15 15 15 13 13 14 16 17 16 17 19 20 20 18 16 15 14 13 13 14 14 15 14 12 11 11 11 11 11 13 13 13 15 16 16 17 17 17 17 19 21 21 21 21 20 18 16 17 18 17 16 15 13 11
1 4 4 2 3 2 2 4 2 0 2 2 6 8 9 7 4 2 3 5 6 2 4 4 3 4 5 7 8 10 12 13 14 14 13 13 14 15 16 16 17 17 19 20 21 20 19 19 19 17 15 14 14 15 15 13 11 11 11 10 10 10 9 9 10 10 11 13 14 14 15 17 18 18 18 18 18 16 13 13 16 18 16 15 14 13
2 4 3 1 2 3 2 3 1 2 2 1 2 6 6 6 5 3 3 6 6 3 4 5 6 6 6 6 7 9 12 14 15 15 13 13 15 17 17 17 18 18 19 22 23 22 21 21 21 21 19 18 17 16 14 13 13 13 11 9 8 9 8 8 7 6 6 7 8 8 9 12 14 15 17 16 15 13 10 11 15 17 16 15 15 16
3 4 2 1 2 3 2 0 2 2 0 2 2 4 5 4 5 4 4 6 6 6 9 9 8 8 9 10 11 14 18 21 20 18 17 15 16 19 19 19 20 21 22 24 24 22 22 22 23 23 22 22 21 18 15 14 16 16 13 11 11 10 9 8 8 9 9 8 7 6 7 9 11 12 14 15 14 12 11 12 15 15 16 16 16 17
3 3 3 2 2 2 3 1 2 2 1 3 2 5 4 3 4 3 3 5 6 4 8 10 9 9 12 14 15 17 22 27 25 21 19 17 18 21 22 22 23 24 25 26 27 26 24 23 24 26 25 23 23 22 20 19 19 18 16 15 14 12 11 10 11 12 11 11 11 9 9 11 12 11 11 11 11 11 10 11 12 13 15 15 15 13
1 3 3 2 2 1 3 4 3 3 3 2 2 4 3 2 4 3 1 3 4 2 7 10 10 11 14 15 17 19 22 25 22 17 16 18 20 22 24 25 25 25 26 28 30 30 28 27 28 28 28 28 27 26 24 23 22 20 20 20 19 18 17 15 16 16 14 13 13 12 11 11 12 11 9 8 7 8 8 8 10 11 12 13 14 14
4 2 1 2 1 0 2 4 3 2 2 2 4 3 2 4 6 4 2 1 2 4 8 10 11 12 14 15 16 14 12 14 10 7 12 18 21 23 25 25 26 25 25 26 28 28 27 27 27 27 27 28 29 28 26 24 22 22 23 24 23 23 22 21 21 20 18 16 16 14 12 11 10 9 7 6 7 7 7 8 8 8 8 10 13 13
8 5 3 3 2 1 2 3 2 1 2 3 6 7 7 8 6 5 2 1 2 7 10 11 12 13 14 15 12 7 2 5 4 5 11 17 20 22 24 25 25 24 24 24 24 24 24 22 22 22 22 24 25 23 20 19 20 23 24 23 23 23 23 22 22 20 19 18 16 15 14 12 10 9 8 7 7 7 7 7 7 7 7 8 8 9
8 6 4 4 3 2 2 3 2 2 3 4 7 12 13 9 4 4 1 2 3 8 11 11 12 14 13 12 7 2 1 5 8 10 14 17 19 19 19 20 21 21 21 21 20 20 20 19 19 19 19 20 20 18 15 13 14 18 20 19 19 20 21 20 19 18 17 16 14 13 12 12 10 9 8 8 8 7 6 5 5 5 5 6 6 6
5 4 4 4 3 3 3 3 3 3 2 5 11 15 13 6 3 2 1 3 0 7 11 11 13 15 12 8 3 2 6 13 19 19 18 18 20 18 16 16 17 16 17 17 16 16 16 17 18 19 20 20 18 17 15 11 9 12 14 13 14 17 18 18 16 15 14 12 11 10 9 8 8 7 7 7 6 5 4 3 3 4 4 5 5 5
3 3 3 3 2 2 2 2 2 3 2 9 16 15 8 2 2 1 5 6 3 6 10 11 13 13 8 3 4 12 20 24 25 22 18 18 20 19 17 17 17 17 16 16 16 15 14 16 16 17 19 19 18 17 16 12 11 12 12 11 14 16 16 15 14 13 11 10 8 7 6 5 4 4 3 2 2 2 3 3 5 5 6 7 8 8
3 1 2 3 2 1 2 3 3 2 4 14 16 9 5 4 3 6 9 6 1 8 10 9 9 8 6 9 16 23 27 26 23 22 22 21 21 20 19 19 19 19 18 17 17 15 14 15 16 16 17 17 16 16 14 13 12 13 11 12 15 16 14 13 12 11 9 8 7 6 5 4 3 2 1 0 1 2 3 4 6 7 8 9 10 12
4 2 2 2 2 2 3 3 3 1 6 12 10 3 3 6 6 7 7 3 6 8 9 8 6 6 11 20 25 24 24 24 24 24 23 22 21 20 20 19 18 18 17 16 16 14 13 14 15 15 15 15 14 15 14 12 11 11 11 13 15 14 12 12 10 9 7 6 6 5 4 3 3 2 1 2 2 3 4 5 6 7 8 9 10 11
5 3 3 3 3 3 4 3 1 3 7 9 7 4 3 5 6 4 2 6 8 7 7 9 10 12 17 24 25 23 23 24 24 23 22 21 20 20 19 18 17 16 15 15 14 14 14 15 15 15 15 15 14 14 13 12 12 11 12 14 14 13 12 11 9 7 7 6 6 5 5 4 4 3 3 3 3 4 5 6 7 7 8 9 9 10
4 2 2 3 3 4 6 6 4 5 8 9 8 7 6 7 7 6 7 10 10 9 9 11 15 18 19 22 23 23 22 22 21 21 20 20 20 19 18 17 15 15 14 14 13 13 13 15 15 16 18 17 16 15 14 14 14 14 15 16 15 13 12 11 10 9 9 8 8 7 7 6 5 5 5 4 4 4 4 5 6 6 7 7 8 8
4 3 2 2 1 2 4 6 6 6 7 8 9 11 12 12 11 10 12 15 14 12 12 14 18 20 20 20 20 19 19 18 18 19 19 19 19 18 17 16 15 15 14 14 13 12 12 13 14 16 18 19 18 17 16 16 17 18 18 17 16 15 14 14 13 13 12 12 11 10 9 8 7 7 6 6 6 5 5 4 4 5 5 5 5 6
3 3 3 3 3 2 3 4 5 8 10 10 11 13 14 15 15 13 14 16 16 15 15 16 19 20 20 19 17 16 16 16 17 19 19 19 18 17 16 16 15 14 14 13 12 11 11 12 14 15 16 18 17 17 16 17 17 18 18 17 17 16 15 14 14 13 13 13 12 11 10 9 9 8 8 8 7 7 7 7 7 7 7 7 7 8
3 2 2 1 3 3 3 3 5 9 11 11 13 14 15 15 16 15 15 16 17 18 18 18 18 19 18 17 15 13 14 14 15 17 17 17 16 15 15 15 14 14 13 12 10 10 10 11 12 13 15 16 16 16 16 16 17 16 16 17 16 16 15 15 14 13 12 12 11 11 10 9 9 9 9 10 10 9 9 9 8 8 9 9 9 9
4 2 0 0 3 4 3 3 3 4 6 8 11 14 15 15 16 16 17 17 18 18 18 17 17 17 16 15 13 12 13 13 13 14 14 14 13 12 12 12 12 12 12 11 10 9 8 9 10 11 12 14 14 14 15 15 15 16 16 16 16 16 16 15 15 14 13 12 11 10 9 8 8 8 9 11 11 11 11 11 11 11 11 11 11 11
4 2 1 2 4 4 3 5 6 6 7 9 11 13 13 13 14 16 16 16 16 16 15 15 16 15 14 13 12 11 12 12 12 11 11 11 10 10 9 9 10 10 10 10 10 10 9 8 7 7 9 10 11 11 12 13 13 14 14 14 15 15 15 15 15 15 15 13 12 10 9 8 7 8 8 9 10 11 11 11 11 12 12 13 13 13
Wind_Direction
175 174 194 200 172 163 182 194 196 163 131 128 182 241 242 251 268 252 269 273 293 300 288 274 266 271 271 250 225 214 208 214 215 214 217 216 211 203 196 198 208 217 218 213 215 217 215 213 213 212 206 205 206 204 202 199 200 206 207 208 209 203 195 191 189 187 185 184 185 184 181 179 179 182 183 185 189 190 188 184 183 184 182 180 178 177
180 207 206 176 161 161 175 174 159 141 149 211 237 267 265 238 261 243 262 280 246 246 260 251 266 267 266 255 232 220 210 216 214 211 216 218 218 211 200 199 207 217 222 220 219 220 216 210 211 213 206 205 204 200 201 198 198 205 210 211 210 205 199 194 192 191 187 187 190 187 181 180 181 181 185 189 188 184 181 177 176 176 174 172 172 173
192 222 197 168 158 117 91 129 149 154 172 207 216 269 270 230 269 247 256 291 226 221 252 275 281 277 277 268 227 220 212 219 215 208 212 214 216 214 204 202 205 214 223 225 222 221 218 209 206 210 211 213 212 206 202 198 202 206 207 210 207 203 202 198 194 193 190 189 190 187 182 180 181 181 183 186 184 181 178 175 173 171 172 174 172 172
198 230 185 165 151 123 103 128 142 146 177 200 207 246 259 138 198 249 235 291 204 233 273 287 291 282 279 277 235 232 226 232 225 212 216 216 214 213 205 202 203 208 216 222 223 222 220 211 204 209 214 218 220 216 206 198 209 214 209 209 205 200 203 202 195 193 192 188 183 180 180 179 181 184 182 180 182 182 181 178 175 175 178 177 174 172
206 179 133 138 158 159 143 133 155 190 220 214 216 235 251 202 214 233 253 323 266 247 246 260 275 267 265 263 236 249 250 255 248 223 225 226 224 220 209 207 209 211 214 217 220 222 219 213 207 209 216 220 221 221 215 210 219 224 218 213 207 200 202 202 196 191 191 186 180 176 176 177 179 182 180 179 182 183 184 183 181 181 180 177 174 173
220 172 143 136 165 176 163 172 185 201 231 242 216 220 231 226 218 214 198 321 280 248 164 230 260 243 217 249 222 261 286 259 246 228 228 226 225 221 212 212 214 215 216 215 217 218 216 213 211 212 217 221 221 220 221 220 222 225 222 217 212 204 199 199 195 191 190 186 183 179 178 179 177 178 179 180 185 186 187 186 183 182 179 176 174 174
217 172 167 160 164 172 184 210 194 188 215 271 222 209 218 224 217 188 169 205 254 269 105 285 273 264 299 262 226 221 277 259 243 230 229 226 222 217 215 217 216 216 215 215 215 214 211 210 211 217 221 220 220 220 221 222 222 225 225 218 213 205 197 196 193 189 190 187 185 185 184 183 182 181 178 174 177 180 178 177 179 180 178 176 174 173
150 155 168 166 160 168 196 222 191 178 191 256 187 183 194 205 205 184 181 206 249 309 282 198 246 266 276 257 212 246 265 252 235 227 224 223 223 219 218 219 218 217 214 212 211 207 205 205 206 214 221 219 218 219 220 221 221 223 226 222 215 207 197 193 191 188 189 186 185 188 187 184 185 183 175 167 167 167 165 167 172 177 177 174 171 171
135 170 177 166 167 188 209 211 173 173 201 250 160 156 175 186 191 179 183 211 224 296 263 187 170 242 259 231 176 218 253 244 231 226 222 222 224 223 221 222 222 220 217 214 212 208 204 201 200 208 218 219 218 219 220 222 221 222 227 226 220 214 199 188 189 188 186 185 185 188 188 182 179 179 173 168 165 161 161 164 170 173 174 172 170 171
98 201 192 167 173 205 214 193 161 177 206 183 135 123 110 124 130 159 187 203 166 244 258 182 166 241 268 234 211 217 252 262 255 232 225 226 228 227 226 227 227 225 221 217 213 211 206 198 198 206 216 218 217 220 222 222 223 223 228 228 222 222 205 186 188 189 183 184 186 187 186 180 176 175 174 170 166 163 162 164 168 170 171 172 173 174
32 211 182 182 201 210 206 173 163 183 179 105 131 126 96 102 99 131 163 170 193 240 256 165 183 233 274 250 224 221 311 327 329 302 259 239 235 233 232 232 231 227 221 214 210 210 208 202 202 207 215 219 219 221 223 224 226 225 229 230 225 225 210 187 186 189 184 183 185 185 183 179 177 177 176 175 170 165 162 163 166 165 165 168 171 170
338 231 176 215 213 189 164 161 159 189 180 111 138 150 126 133 125 137 133 154 228 246 307 130 193 216 242 250 80 41 359 345 320 304 294 263 242 236 235 236 231 222 215 213 211 210 209 206 207 211 217 221 224 227 229 228 227 225 228 233 229 224 214 193 187 187 185 183 182 182 181 180 181 181 180 178 170 163 162 164 163 158 156 159 160 161
259 234 254 255 216 189 186 190 140 148 189 191 184 183 194 185 153 201 202 192 243 248 102 138 174 208 246 268 30 18 340 331 312 294 285 275 255 235 229 229 221 214 214 213 207 205 209 209 209 212 213 217 226 230 229 225 220 218 227 237 233 227 221 201 188 186 184 182 180 178 179 182 185 184 183 178 167 160 161 160 157 152 151 152 154 158
234 240 226 250 233 194 193 211 199 167 181 185 179 185 190 169 163 204 201 229 263 263 66 128 170 232 252 298 21 357 341 334 328 308 281 265 259 238 220 216 212 210 210 207 203 205 213 216 215 214 208 210 219 219 225 232 231 229 228 230 228 226 227 209 188 185 185 181 178 176 177 182 185 182 179 173 164 158 157 152 146 144 143 145 149 153
219 261 196 192 188 177 189 212 213 132 157 176 165 177 195 187 191 212 211 230 254 249 79 121 174 227 234 63 358 342 353 356 0 359 330 248 240 215 194 202 208 206 201 204 211 217 223 222 218 215 204 197 199 206 232 245 245 236 223 221 223 218 220 209 188 186 188 180 174 174 177 179 180 179 173 168 163 156 154 148 140 138 140 141 145 147
217 275 234 219 335 172 185 193 140 120 146 161 143 174 225 221 184 136 248 229 269 260 123 175 220 264 249 6 356 8 23 20 27 39 46 71 120 135 166 191 196 201 202 204 212 218 220 214 203 195 188 187 196 216 239 242 243 237 209 194 209 213 213 205 187 186 189 182 176 174 177 176 174 176 173 167 163 154 151 148 140 139 142 144 146 146
193 269 266 315 251 198 201 177 161 186 181 133 179 194 179 240 142 122 116 71 349 259 221 175 255 289 233 189 34 39 42 35 35 46 48 52 74 88 107 141 160 185 187 184 195 206 205 192 180 182 188 199 216 231 243 245 245 237 193 175 197 208 207 201 189 184 184 185 181 177 180 179 174 175 175 168 161 156 155 151 144 143 146 150 153 152
210 267 263 216 209 218 260 176 140 146 138 139 195 180 123 79 88 112 213 102 195 246 235 131 269 287 243 199 51 40 42 41 40 50 53 51 59 62 64 75 82 119 155 168 184 209 220 175 159 176 191 208 225 235 244 248 244 221 197 202 205 199 197 196 189 182 181 186 185 183 186 183 176 176 175 171 165 164 162 156 150 148 147 151 158 160
203 266 279 230 219 23 351 172 127 77 101 152 189 139 136 210 192 148 205 204 215 240 232 174 264 266 243 244 42 36 37 44 51 58 59 60 66 67 63 59 54 87 154 175 189 214 268 243 187 181 184 199 221 235 240 237 224 189 189 218 211 181 185 189 186 183 185 187 186 188 191 184 177 177 178 176 173 171 167 161 158 153 148 150 155 161
150 254 262 192 245 347 11 204 178 159 146 53 137 145 40 272 214 186 179 216 233 228 219 216 246 226 204 11 13 12 19 46 72 73 71 71 76 80 83 85 85 114 176 196 193 185 277 271 214 197 184 203 225 235 235 225 202 181 193 215 198 176 177 181 184 186 187 189 188 191 192 185 179 178 180 180 174 172 170 164 161 154 146 145 149 155
102 231 241 232 271 268 241 294 259 190 169 169 179 177 168 129 40 203 149 38 266 208 171 217 243 141 85 358 332 349 359 50 96 96 95 92 91 93 95 101 117 147 177 189 172 123 86 191 181 191 165 195 221 227 223 204 185 189 204 206 182 175 175 177 184 187 189 190 189 190 190 187 182 179 181 180 173 171 170 164 159 152 143 143 148 154
151 182 212 262 289 281 320 32 323 241 184 184 207 200 177 153 158 197 198 149 301 242 165 214 246 85 85 300 331 0 352 92 109 111 119 121 121 119 106 109 133 142 148 155 127 98 108 154 158 172 177 179 199 209 203 191 188 197 206 191 174 175 176 179 185 190 192 191 189 188 187 185 182 181 182 180 174 171 170 165 159 152 145 144 151 155
135 119 172 224 276 286 293 326 280 247 122 97 92 335 113 152 180 218 222 184 152 188 98 172 250 86 81 26 49 33 67 113 124 128 131 132 132 130 120 116 129 129 132 144 132 117 136 162 167 176 187 190 197 200 193 189 191 193 195 188 179 176 180 185 189 193 195 193 189 185 183 182 182 183 184 182 177 173 169 164 159 154 149 144 148 155
143 115 149 185 284 302 283 193 156 179 150 112 62 44 33 285 291 258 243 172 165 165 141 200 214 135 63 103 92 69 93 109 114 115 120 122 119 117 112 101 105 114 123 133 130 128 144 166 174 172 179 196 196 191 185 185 186 184 188 193 185 178 182 188 192 196 196 194 192 185 182 182 183 184 186 184 180 175 167 161 156 153 148 139 140 156
210 244 138 155 146 135 156 196 191 168 104 69 46 29 16 6 5 178 114 135 199 176 166 220 202 100 41 113 106 100 101 94 73 69 87 98 94 94 96 94 99 105 109 115 114 117 132 148 155 152 158 174 169 171 180 180 186 197 195 192 186 184 186 189 194 199 199 198 196 189 185 184 184 186 187 185 181 173 167 163 159 155 151 140 130 147
164 26 138 189 187 177 169 188 197 158 11 6 24 17 16 19 358 278 153 187 220 174 154 235 190 124 141 113 103 103 94 75 61 62 68 71 72 79 86 90 95 96 97 103 104 102 102 95 105 119 116 126 134 157 184 179 186 197 191 180 178 180 183 186 191 197 202 203 200 194 190 187 186 187 188 187 180 170 166 168 166 160 154 143 126 132
105 49 29 73 139 180 165 115 353 358 344 321 357 7 10 4 338 277 188 196 198 153 164 275 111 133 141 104 82 77 74 70 63 61 63 64 67 75 81 84 92 95 96 99 101 96 86 76 81 89 101 138 150 177 189 179 181 183 178 176 175 174 177 181 186 194 201 204 201 196 191 189 189 189 190 189 182 172 168 171 171 166 160 149 132 129
97 73 8 41 66 68 41 49 41 58 81 59 16 11 10 3 351 260 198 343 336 166 182 169 139 136 114 61 50 54 67 71 65 62 67 71 71 79 85 85 88 91 93 96 98 99 98 96 98 95 88 116 151 166 165 169 175 171 173 179 171 164 170 177 184 192 200 204 205 205 199 193 192 191 192 192 187 181 175 173 173 171 166 156 141 134
112 109 260 91 78 66 60 76 92 94 87 69 49 33 21 18 31 61 51 358 337 297 163 152 144 123 74 48 38 39 56 69 73 75 78 80 80 85 90 87 81 80 85 93 98 103 107 109 110 105 101 109 123 134 145 163 172 169 174 175 163 159 168 175 180 188 195 197 201 204 203 198 193 191 194 195 193 192 186 179 178 177 174 165 153 149
118 100 172 152 92 57 44 69 106 112 94 68 52 38 32 40 52 62 53 26 31 66 104 120 114 86 53 48 47 51 64 73 77 77 73 72 74 80 85 84 79 77 81 89 99 108 113 113 112 111 111 116 121 128 141 156 164 167 171 170 166 167 171 175 179 187 194 194 196 199 199 198 194 191 193 197 198 197 189 176 171 175 178 173 162 158
139 118 158 126 99 58 29 42 99 113 103 76 50 31 27 37 46 47 37 23 41 80 103 106 98 80 57 64 69 72 73 71 67 65 64 64 68 76 80 78 77 79 82 89 100 109 116 116 114 115 114 112 116 126 135 142 149 156 162 166 169 170 173 179 185 191 195 196 198 198 195 196 197 196 199 201 203 202 194 185 184 191 197 191 173 162
76 128 150 120 131 113 17 15 50 102 111 82 44 19 10 16 26 28 26 14 21 91 122 119 100 95 103 92 81 74 73 72 66 62 64 65 66 72 75 74 74 78 82 90 99 107 114 115 115 116 114 111 115 122 126 133 141 141 139 141 148 156 168 182 192 197 196 194 196 195 194 197 200 203 207 208 212 221 222 217 219 222 219 208 194 184
116 141 147 146 155 146 11 346 342 193 164 101 28 358 350 359 0 353 26 19 1 7 147 141 113 112 124 112 91 77 74 75 72 67 66 70 74 73 72 74 77 78 83 92 99 104 108 110 111 113 112 112 113 115 118 127 136 129 120 119 125 134 150 168 180 187 188 192 195 196 201 204 206 212 216 216 220 228 228 219 214 212 210 209 210 210
120 124 118 131 154 134 28 339 284 211 201 157 10 342 345 6 20 44 51 23 14 52 102 106 112 114 111 105 99 92 83 78 79 78 74 75 82 84 80 79 82 85 89 95 101 104 105 107 108 110 111 111 109 110 117 125 128 123 117 120 128 130 135 141 141 136 146 167 179 187 199 205 208 214 216 212 208 205 198 195 200 205 210 215 218 215
126 111 96 88 84 102 103 219 200 198 177 151 112 8 357 0 19 53 71 38 44 91 102 104 112 111 105 103 102 99 92 87 82 77 76 78 84 90 90 87 88 91 91 95 100 102 103 105 106 107 109 110 109 111 116 118 118 120 123 127 131 127 121 120 116 112 115 125 135 149 172 181 188 194 195 192 190 189 193 199 205 212 216 217 216 211
137 119 101 84 51 113 135 119 142 127 93 152 128 24 9 333 347 13 69 48 45 88 110 112 115 116 116 113 109 104 98 91 80 70 72 80 83 88 91 90 92 94 92 93 97 97 96 97 99 100 104 107 108 108 109 108 108 112 115 118 120 119 120 123 118 111 113 120 127 139 154 162 169 173 175 179 184 192 200 203 208 212 213 216 218 212
99 117 101 80 36 121 119 87 109 148 124 108 54 17 11 335 330 318 332 32 33 94 125 126 128 129 126 123 122 118 102 89 76 61 66 81 87 89 91 92 94 95 93 95 97 96 95 94 94 95 97 99 100 101 102 106 107 108 108 107 108 111 116 119 115 111 112 116 118 123 132 143 152 157 161 171 180 191 200 205 209 206 199 202 209 209
21 58 106 108 53 4 130 114 131 170 123 46 359 357 349 310 295 267 249 350 48 121 137 140 138 138 138 138 142 140 108 83 74 64 77 88 94 96 94 93 94 93 91 93 96 97 97 96 95 95 95 95 95 95 96 100 104 107 106 103 103 105 106 105 104 105 108 111 112 115 117 122 129 136 148 169 179 187 196 204 209 205 193 195 204 211
35 41 62 88 80 56 113 114 105 107 89 10 338 328 325 314 283 242 226 32 104 140 147 145 142 146 151 150 158 179 132 88 106 125 106 99 98 99 98 95 93 90 87 86 88 91 92 93 93 94 95 93 90 91 95 97 99 101 100 98 98 99 98 97 98 99 102 104 107 110 111 112 115 122 136 153 159 167 180 187 192 198 198 200 206 215
31 33 44 60 70 75 85 93 81 73 62 4 329 318 320 319 264 217 207 53 118 154 155 151 150 154 158 161 171 253 19 125 146 144 126 110 101 98 96 94 92 90 86 81 79 82 85 87 88 87 86 82 78 79 85 92 99 97 92 93 96 92 88 88 89 91 95 99 101 104 106 109 111 115 123 130 133 140 151 154 157 173 189 199 208 221
30 30 43 59 64 54 69 96 94 84 55 342 323 318 319 307 218 200 29 15 147 170 162 158 159 159 161 177 199 49 101 130 137 135 128 116 108 102 96 93 91 89 87 81 76 76 77 77 76 73 71 69 68 68 66 70 87 84 75 79 86 80 74 72 74 77 81 85 91 95 97 102 105 108 116 126 131 139 150 156 165 179 195 209 216 224
29 30 34 41 37 27 53 89 94 113 63 342 328 325 333 316 220 341 349 326 282 183 166 157 159 163 166 172 133 121 124 129 131 130 126 119 113 106 100 96 91 86 84 78 73 70 70 69 68 67 65 62 61 62 57 53 65 67 61 64 71 70 68 66 66 66 67 71 76 78 79 84 84 86 100 121 153 187 218 233 236 240 245 251 252 252
3 6 57 36 6 18 61 54 58 108 8 347 339 340 13 9 311 319 330 327 185 162 160 149 150 165 158 129 125 127 129 130 129 126 122 118 113 105 99 95 89 84 81 77 72 66 64 67 67 66 66 64 61 61 55 46 51 57 57 63 67 66 66 65 64 62 61 63 66 66 69 71 68 68 56 345 255 249 256 257 256 257 260 263 265 265
2 0 91 54 346 17 60 52 41 3 341 347 351 353 346 337 318 315 329 20 120 142 152 141 133 151 147 135 130 129 131 130 127 124 121 116 112 105 100 97 93 90 87 82 79 73 67 70 72 71 72 71 68 69 64 57 58 62 64 68 69 67 65 63 61 58 53 53 57 56 55 51 44 31 358 326 300 290 284 277 275 273 270 269 269 269
24 26 83 75 52 59 71 70 46 8 359 360 10 7 334 350 2 359 49 101 102 109 129 131 129 138 142 137 132 131 132 131 129 128 124 118 112 107 105 103 100 97 93 88 86 81 76 79 82 84 85 83 80 81 80 76 78 82 81 78 75 71 68 65 62 58 55 52 50 44 38 29 15 0 345 324 306 300 294 289 287 283 280 279 277 275
43 46 98 84 87 97 78 60 38 26 23 22 36 49 57 60 53 63 99 102 96 100 114 123 127 131 133 132 132 133 134 133 132 130 127 122 117 113 111 109 106 102 99 96 94 91 88 89 89 89 89 87 85 85 86 84 84 85 84 82 77 71 68 64 61 59 58 54 49 42 34 24 13 5 355 340 329 320 307 301 298 294 292 292 289 286
42 45 71 77 99 137 77 46 29 34 38 42 60 69 72 76 77 85 99 104 106 110 115 123 127 127 125 125 129 132 134 135 135 134 132 129 125 120 117 115 114 112 108 104 103 101 101 100 97 93 90 87 85 83 82 82 81 80 80 78 74 68 62 57 54 53 51 49 45 40 36 30 22 16 9 4 5 4 359 354 342 329 325 322 314 310
13 23 37 54 58 68 68 50 53 67 68 67 76 80 82 85 88 92 101 110 113 112 113 119 123 121 120 119 121 126 132 137 139 139 137 135 130 126 121 118 118 117 112 108 106 107 108 106 103 98 93 89 86 84 82 80 79 78 77 75 70 66 61 55 51 48 45 43 39 36 35 35 33 32 29 27 26 24 24 19 6 356 353 348 341 337
334 5 12 57 81 82 87 106 106 89 77 72 79 89 94 91 91 94 99 102 104 106 108 112 113 112 113 112 111 116 125 134 139 138 137 135 130 125 120 117 116 116 111 107 107 109 110 108 103 99 95 90 86 84 83 82 80 78 75 72 68 63 58 53 50 47 45 43 40 38 39 41 43 48 52 50 44 38 34 29 20 12 6 359 354 350
6 67 53 93 103 92 92 146 161 107 83 87 96 100 100 94 91 97 98 94 94 98 103 108 110 110 110 110 113 116 119 123 129 131 130 130 127 123 120 118 116 113 107 101 99 100 103 103 99 95 93 90 86 84 84 83 81 79 74 70 65 59 54 49 46 44 43 41 40 42 45 49 53 57 60 59 53 46 40 34 28 22 16 10 6 1
21 61 332 41 79 84 103 141 146 119 109 120 119 113 108 99 95 98 99 97 96 96 96 98 103 108 111 115 121 122 116 113 118 123 127 131 133 131 129 127 125 122 113 104 98 93 91 93 94 93 93 90 86 84 84 82 80 76 71 66 60 54 48 43 39 37 35 33 32 34 38 44 50 53 55 57 57 55 51 44 33 23 16 12 10 9
Height
1486 1488 1488 1487 1487 1489 1490 1490 1490 1492 1493 1494 1495 1497 1497 1498 1498 1498 1495 1491 1491 1492 1487 1485 1486 1483 1480 1479 1480 1481 1482 1483 1485 1485 1485 1485 1485 1487 1488 1487 1487 1486 1486 1488 1491 1493 1496 1498 1500 1502 1504 1506 1508 1510 1512 1513 1514 1515 1517 1520 1522 1524 1524 1524 1526 1528 1530 1532 1534 1536 1538 1539 1541 1542 1544 1545 1546 1548 1549 1550 1550 1551 1552 1552 1553 1555
1487 1487 1486 1485 1486 1487 1488 1489 1491 1493 1494 1494 1494 1495 1495 1497 1498 1496 1494 1490 1491 1492 1486 1484 1486 1482 1478 1477 1478 1480 1481 1481 1481 1482 1482 1481 1483 1485 1487 1488 1487 1486 1486 1487 1488 1491 1493 1496 1498 1500 1502 1503 1506 1508 1510 1511 1512 1513 1515 1518 1520 1523 1524 1524 1525 1526 1528 1530 1532 1534 1536 1538 1540 1542 1543 1545 1546 1547 1548 1549 1550 1550 1551 1552 1553 1554
1488 1486 1484 1485 1486 1487 1489 1491 1492 1493 1494 1495 1495 1495 1494 1495 1497 1494 1492 1491 1491 1491 1486 1484 1486 1480 1474 1476 1477 1478 1477 1476 1476 1476 1477 1478 1479 1482 1485 1486 1487 1487 1486 1485 1486 1488 1491 1494 1496 1498 1500 1501 1503 1506 1508 1510 1510 1511 1513 1516 1518 1521 1523 1524 1524 1526 1527 1529 1531 1533 1535 1537 1539 1541 1542 1544 1545 1546 1547 1548 1549 1550 1551 1552 1553 1553
1488 1483 1482 1485 1485 1486 1490 1492 1492 1492 1494 1494 1494 1495 1493 1495 1497 1494 1491 1491 1490 1489 1487 1485 1486 1480 1474 1475 1475 1475 1474 1472 1473 1475 1475 1475 1475 1477 1481 1483 1484 1484 1483 1483 1484 1486 1489 1492 1494 1495 1497 1499 1501 1504 1506 1508 1508 1508 1511 1515 1517 1519 1522 1524 1524 1525 1527 1529 1531 1533 1535 1537 1538 1540 1541 1543 1544 1545 1546 1548 1549 1550 1551 1551 1552 1553
1484 1481 1481 1484 1485 1485 1489 1492 1493 1492 1492 1494 1494 1492 1492 1493 1494 1492 1490 1491 1488 1488 1487 1487 1487 1480 1474 1475 1474 1472 1473 1472 1473 1475 1474 1474 1474 1475 1479 1481 1481 1481 1481 1482 1483 1485 1488 1490 1492 1494 1495 1497 1500 1502 1504 1505 1506 1507 1510 1513 1515 1516 1520 1524 1525 1526 1527 1529 1530 1532 1534 1536 1537 1539 1541 1542 1543 1545 1546 1547 1548 1549 1550 1551 1552 1553
1481 1481 1481 1484 1486 1486 1487 1490 1491 1490 1490 1492 1491 1488 1487 1487 1488 1490 1491 1492 1491 1489 1486 1487 1488 1480 1473 1475 1474 1473 1474 1472 1471 1473 1471 1471 1472 1474 1476 1477 1478 1480 1480 1481 1482 1484 1487 1489 1491 1493 1494 1496 1498 1500 1502 1503 1504 1506 1508 1511 1513 1514 1517 1522 1525 1526 1527 1528 1529 1531 1532 1534 1536 1538 1539 1541 1543 1544 1545 1546 1548 1549 1550 1551 1552 1553
1478 1480 1480 1482 1485 1486 1487 1487 1487 1488 1490 1491 1485 1481 1483 1483 1486 1491 1492 1493 1492 1488 1486 1487 1488 1483 1475 1470 1471 1475 1476 1471 1470 1469 1468 1468 1469 1470 1471 1472 1474 1476 1478 1480 1482 1484 1486 1488 1490 1491 1492 1494 1496 1498 1500 1502 1504 1505 1506 1509 1511 1513 1516 1519 1522 1524 1525 1527 1529 1531 1532 1533 1534 1536 1538 1540 1542 1543 1544 1546 1547 1548 1549 1550 1552 1553
1476 1479 1481 1481 1482 1485 1486 1484 1484 1485 1487 1487 1481 1479 1482 1484 1487 1490 1489 1489 1488 1486 1486 1486 1486 1487 1481 1470 1469 1475 1475 1470 1468 1465 1464 1465 1465 1466 1467 1468 1470 1473 1475 1478 1481 1483 1485 1487 1489 1491 1491 1493 1495 1497 1499 1501 1502 1503 1504 1506 1508 1511 1513 1516 1519 1521 1523 1525 1528 1530 1531 1533 1535 1536 1538 1539 1541 1543 1544 1545 1547 1548 1549 1550 1551 1552
1474 1477 1479 1479 1482 1483 1481 1478 1479 1482 1483 1480 1478 1481 1481 1482 1485 1485 1487 1488 1489 1490 1486 1482 1485 1488 1481 1469 1469 1474 1472 1468 1465 1462 1462 1462 1463 1464 1465 1466 1468 1471 1475 1478 1481 1484 1486 1488 1490 1491 1492 1492 1494 1496 1498 1500 1501 1502 1503 1504 1506 1508 1511 1514 1516 1519 1522 1524 1527 1529 1531 1532 1534 1536 1537 1539 1540 1542 1543 1545 1546 1548 1549 1550 1551 1552
1473 1474 1474 1475 1478 1477 1474 1474 1476 1479 1478 1476 1478 1481 1481 1483 1485 1485 1487 1486 1491 1494 1485 1480 1484 1485 1478 1465 1464 1469 1467 1463 1462 1460 1460 1461 1462 1464 1464 1466 1468 1472 1475 1478 1482 1484 1487 1489 1490 1491 1491 1492 1494 1496 1497 1499 1499 1501 1502 1503 1504 1506 1509 1513 1515 1517 1520 1523 1526 1528 1530 1532 1533 1535 1537 1538 1540 1541 1543 1544 1546 1547 1548 1549 1550 1551
1472 1473 1472 1473 1473 1471 1470 1473 1475 1476 1476 1476 1478 1479 1480 1484 1485 1486 1487 1485 1491 1491 1480 1478 1481 1482 1480 1466 1458 1464 1464 1462 1461 1459 1459 1460 1462 1463 1464 1467 1469 1473 1476 1478 1481 1483 1485 1487 1488 1489 1490 1492 1494 1495 1497 1498 1498 1500 1501 1503 1504 1506 1509 1513 1514 1516 1518 1521 1525 1528 1530 1531 1533 1534 1536 1537 1539 1540 1542 1543 1545 1546 1548 1549 1550 1551
1472 1473 1472 1469 1468 1469 1469 1472 1475 1476 1475 1477 1477 1478 1482 1485 1485 1487 1487 1488 1492 1487 1480 1483 1482 1483 1482 1466 1457 1464 1466 1465 1464 1461 1460 1460 1461 1463 1465 1468 1470 1472 1475 1476 1478 1480 1482 1483 1483 1485 1487 1490 1492 1495 1497 1497 1498 1500 1503 1505 1506 1507 1509 1512 1514 1516 1518 1521 1524 1527 1529 1531 1533 1534 1536 1537 1538 1539 1540 1542 1544 1546 1547 1548 1549 1551
1472 1470 1469 1467 1466 1467 1468 1471 1475 1477 1477 1478 1478 1480 1484 1487 1490 1491 1488 1490 1489 1481 1481 1487 1485 1483 1476 1462 1462 1468 1466 1465 1465 1463 1462 1461 1461 1463 1465 1467 1469 1471 1473 1475 1476 1477 1479 1480 1480 1481 1483 1487 1491 1494 1496 1498 1499 1503 1506 1508 1508 1509 1510 1512 1514 1517 1519 1521 1524 1527 1529 1532 1534 1535 1536 1537 1537 1539 1540 1542 1544 1545 1547 1548 1549 1551
1472 1468 1467 1468 1466 1463 1465 1469 1470 1473 1475 1476 1476 1479 1481 1486 1496 1499 1494 1495 1490 1479 1481 1487 1484 1480 1469 1461 1466 1468 1465 1465 1463 1462 1461 1461 1462 1463 1465 1467 1469 1471 1473 1475 1476 1478 1480 1482 1483 1484 1485 1487 1491 1494 1497 1498 1500 1502 1504 1505 1507 1509 1511 1513 1516 1519 1520 1522 1524 1527 1530 1532 1534 1535 1536 1537 1537 1539 1540 1542 1544 1545 1547 1548 1549 1551
1476 1471 1464 1463 1462 1459 1461 1462 1461 1465 1471 1472 1471 1472 1475 1476 1483 1489 1486 1485 1482 1477 1481 1485 1481 1474 1465 1464 1467 1465 1464 1464 1462 1461 1461 1461 1463 1464 1466 1469 1471 1473 1475 1476 1478 1480 1482 1484 1485 1487 1488 1488 1492 1496 1498 1499 1499 1499 1500 1503 1506 1509 1511 1514 1519 1521 1522 1523 1524 1527 1529 1532 1534 1535 1536 1537 1538 1539 1540 1542 1544 1545 1546 1548 1549 1551
1477 1471 1458 1457 1459 1456 1457 1456 1457 1462 1469 1473 1471 1471 1474 1467 1466 1480 1486 1484 1481 1479 1480 1482 1477 1470 1465 1466 1466 1464 1464 1463 1462 1462 1461 1462 1463 1465 1467 1469 1471 1474 1476 1478 1480 1482 1483 1484 1485 1487 1488 1490 1493 1497 1498 1497 1498 1500 1502 1505 1507 1510 1512 1515 1519 1522 1525 1525 1525 1526 1529 1530 1532 1534 1535 1537 1538 1539 1541 1542 1543 1544 1546 1547 1549 1550
1474 1467 1456 1457 1458 1455 1456 1455 1456 1459 1463 1472 1473 1468 1468 1463 1461 1476 1490 1493 1490 1483 1481 1482 1476 1468 1466 1467 1465 1464 1465 1466 1466 1465 1465 1466 1465 1467 1468 1469 1471 1473 1475 1478 1481 1484 1485 1484 1485 1486 1487 1491 1494 1496 1496 1497 1498 1500 1503 1505 1507 1509 1512 1515 1518 1520 1523 1525 1526 1527 1528 1530 1531 1533 1535 1537 1538 1540 1541 1542 1543 1544 1545 1547 1548 1550
1468 1464 1456 1456 1456 1455 1456 1456 1455 1456 1458 1466 1468 1461 1461 1465 1465 1470 1480 1488 1490 1484 1481 1483 1481 1473 1469 1468 1466 1467 1469 1471 1471 1469 1469 1469 1468 1469 1470 1470 1472 1473 1474 1477 1480 1484 1487 1486 1486 1487 1489 1493 1495 1495 1496 1497 1499 1500 1502 1504 1506 1508 1510 1513 1516 1518 1521 1524 1526 1527 1528 1530 1531 1533 1535 1537 1539 1540 1540 1541 1542 1543 1545 1546 1548 1549
1466 1465 1458 1456 1456 1456 1455 1456 1457 1458 1457 1458 1459 1456 1459 1466 1468 1470 1477 1482 1484 1485 1483 1482 1483 1478 1470 1469 1471 1472 1474 1475 1475 1473 1472 1472 1471 1471 1472 1472 1474 1474 1476 1478 1479 1483 1486 1488 1488 1489 1491 1493 1494 1494 1496 1497 1498 1500 1501 1503 1504 1506 1508 1512 1515 1517 1520 1523 1525 1527 1528 1529 1531 1532 1535 1537 1538 1539 1540 1540 1541 1543 1544 1545 1547 1548
1464 1467 1462 1456 1456 1456 1455 1455 1457 1458 1458 1457 1457 1458 1459 1462 1464 1467 1472 1471 1473 1482 1485 1480 1477 1472 1469 1475 1479 1477 1477 1477 1477 1477 1477 1476 1475 1474 1473 1474 1474 1475 1477 1479 1479 1481 1484 1487 1489 1490 1491 1492 1492 1493 1494 1496 1497 1499 1500 1501 1502 1504 1506 1510 1513 1516 1519 1521 1523 1526 1527 1529 1530 1532 1534 1536 1537 1539 1539 1540 1541 1542 1543 1544 1546 1547
1461 1467 1465 1458 1454 1456 1456 1456 1457 1458 1457 1457 1458 1460 1461 1463 1465 1465 1469 1471 1470 1475 1483 1482 1473 1469 1475 1482 1480 1478 1478 1477 1478 1479 1479 1479 1478 1476 1475 1474 1473 1474 1476 1478 1479 1480 1483 1487 1489 1489 1491 1491 1491 1491 1492 1494 1496 1497 1498 1500 1502 1504 1506 1509 1512 1515 1517 1520 1522 1525 1526 1528 1530 1531 1534 1535 1537 1538 1539 1540 1540 1541 1543 1544 1546 1547
1459 1464 1465 1460 1457 1457 1457 1458 1459 1458 1457 1457 1456 1455 1457 1461 1463 1465 1471 1476 1473 1471 1478 1479 1469 1469 1480 1482 1478 1479 1478 1476 1478 1479 1479 1480 1479 1478 1477 1475 1475 1475 1476 1479 1479 1479 1483 1487 1488 1488 1489 1489 1489 1490 1491 1493 1495 1496 1498 1501 1502 1504 1506 1508 1511 1514 1517 1519 1521 1524 1526 1528 1530 1531 1533 1535 1536 1538 1538 1539 1540 1541 1542 1544 1545 1546
1457 1460 1463 1462 1460 1459 1459 1459 1460 1460 1460 1460 1458 1458 1459 1458 1457 1459 1464 1470 1474 1475 1477 1475 1469 1472 1481 1481 1477 1479 1477 1477 1479 1478 1478 1480 1480 1480 1480 1478 1478 1478 1479 1481 1480 1480 1483 1487 1487 1487 1488 1488 1488 1489 1491 1493 1495 1496 1498 1500 1502 1504 1506 1509 1511 1514 1516 1518 1520 1523 1525 1527 1529 1531 1533 1535 1536 1537 1537 1539 1540 1541 1542 1544 1545 1546
1457 1460 1463 1463 1461 1458 1456 1458 1460 1460 1460 1460 1461 1464 1465 1463 1461 1459 1460 1463 1469 1473 1474 1471 1471 1476 1481 1480 1478 1478 1478 1478 1480 1479 1479 1480 1481 1482 1481 1480 1480 1480 1481 1482 1481 1480 1483 1486 1486 1486 1487 1486 1487 1491 1492 1493 1495 1496 1498 1500 1502 1504 1506 1508 1511 1513 1515 1518 1520 1522 1524 1526 1528 1530 1532 1534 1535 1536 1537 1538 1540 1541 1542 1544 1545 1546
1458 1461 1463 1465 1467 1466 1464 1462 1460 1458 1460 1464 1467 1469 1468 1469 1467 1463 1462 1462 1464 1471 1472 1465 1467 1477 1480 1478 1478 1478 1479 1480 1481 1481 1481 1481 1482 1482 1482 1482 1481 1481 1482 1482 1481 1482 1484 1486 1486 1486 1487 1487 1488 1492 1493 1493 1495 1496 1497 1499 1501 1503 1505 1507 1509 1512 1515 1517 1519 1521 1523 1524 1527 1529 1531 1533 1534 1535 1537 1538 1540 1541 1542 1544 1545 1546
1460 1466 1464 1463 1466 1470 1470 1469 1465 1463 1465 1468 1470 1473 1473 1474 1472 1466 1462 1460 1462 1473 1474 1462 1466 1480 1482 1478 1478 1479 1480 1482 1483 1483 1483 1483 1483 1483 1483 1483 1483 1483 1483 1482 1482 1483 1484 1485 1487 1488 1489 1489 1490 1492 1493 1493 1494 1496 1497 1499 1500 1502 1503 1505 1508 1511 1514 1516 1518 1520 1522 1523 1526 1528 1530 1531 1533 1534 1536 1538 1539 1541 1542 1544 1545 1546
1464 1472 1471 1466 1463 1465 1467 1470 1473 1473 1472 1472 1474 1477 1477 1479 1479 1471 1461 1457 1461 1470 1473 1468 1472 1480 1482 1480 1482 1483 1483 1485 1486 1485 1485 1486 1485 1485 1485 1485 1484 1485 1484 1483 1482 1483 1484 1485 1487 1488 1489 1490 1490 1491 1491 1492 1493 1495 1497 1497 1498 1500 1502 1504 1507 1509 1512 1515 1517 1519 1521 1523 1525 1527 1529 1531 1532 1534 1535 1537 1539 1541 1542 1543 1544 1545
1465 1472 1475 1474 1472 1472 1473 1475 1476 1476 1478 1481 1482 1481 1479 1480 1479 1471 1464 1466 1467 1463 1467 1475 1477 1478 1483 1486 1486 1486 1487 1487 1488 1488 1488 1488 1488 1488 1487 1486 1486 1486 1485 1484 1483 1483 1485 1486 1487 1488 1489 1490 1491 1490 1492 1493 1493 1494 1496 1496 1498 1500 1501 1503 1506 1509 1512 1515 1519 1521 1522 1523 1525 1526 1529 1530 1532 1533 1535 1537 1539 1540 1542 1543 1544 1545
1463 1471 1476 1477 1477 1477 1477 1476 1476 1478 1481 1485 1484 1483 1482 1480 1478 1475 1476 1480 1476 1465 1466 1476 1479 1481 1489 1492 1490 1490 1490 1489 1490 1491 1491 1491 1490 1489 1488 1488 1488 1488 1487 1486 1486 1487 1487 1488 1488 1489 1490 1491 1491 1491 1493 1495 1494 1494 1495 1496 1498 1500 1501 1504 1507 1509 1512 1515 1518 1520 1522 1523 1524 1525 1528 1529 1531 1533 1535 1537 1538 1540 1542 1543 1544 1544
1461 1471 1477 1476 1477 1478 1478 1477 1477 1478 1482 1485 1486 1486 1484 1482 1480 1480 1482 1482 1478 1473 1475 1481 1484 1490 1494 1494 1493 1494 1493 1492 1493 1493 1493 1493 1492 1491 1490 1489 1490 1490 1490 1490 1490 1490 1490 1490 1490 1490 1491 1491 1492 1492 1494 1495 1495 1494 1495 1497 1499 1500 1502 1504 1507 1509 1512 1514 1517 1518 1520 1521 1522 1524 1527 1529 1531 1532 1533 1536 1538 1541 1542 1543 1543 1544
1458 1471 1477 1475 1475 1479 1480 1479 1477 1477 1481 1485 1489 1489 1486 1484 1483 1483 1485 1485 1482 1481 1484 1485 1489 1494 1497 1496 1496 1496 1495 1495 1495 1494 1495 1495 1494 1493 1492 1492 1493 1492 1492 1492 1492 1492 1492 1492 1492 1492 1492 1492 1493 1494 1494 1495 1495 1495 1496 1498 1500 1501 1503 1505 1507 1509 1511 1514 1515 1517 1519 1520 1522 1524 1526 1528 1529 1530 1532 1535 1539 1541 1542 1543 1543 1544
1458 1470 1476 1473 1474 1478 1481 1481 1480 1480 1479 1483 1490 1493 1491 1489 1488 1487 1489 1490 1488 1485 1486 1486 1489 1494 1498 1498 1498 1497 1497 1497 1497 1497 1498 1497 1497 1495 1494 1494 1495 1494 1494 1494 1494 1493 1494 1494 1494 1494 1494 1494 1495 1495 1496 1496 1496 1497 1498 1499 1501 1502 1504 1506 1508 1510 1512 1513 1515 1516 1519 1521 1522 1524 1525 1527 1529 1530 1532 1536 1538 1540 1541 1542 1543 1543
1460 1465 1470 1469 1471 1478 1482 1481 1481 1479 1476 1481 1493 1499 1497 1494 1492 1491 1491 1492 1492 1490 1487 1487 1491 1497 1499 1499 1499 1500 1499 1499 1499 1500 1500 1500 1499 1497 1497 1497 1497 1496 1497 1496 1495 1495 1495 1495 1496 1496 1497 1497 1498 1498 1498 1498 1498 1499 1500 1501 1502 1504 1506 1508 1509 1511 1513 1514 1515 1517 1519 1521 1523 1524 1525 1527 1528 1530 1532 1535 1536 1538 1539 1541 1542 1543
1461 1462 1466 1468 1469 1476 1481 1481 1479 1478 1479 1489 1501 1502 1498 1496 1494 1493 1494 1495 1495 1493 1491 1492 1496 1499 1500 1500 1501 1502 1501 1502 1502 1502 1502 1502 1500 1499 1499 1499 1499 1499 1499 1498 1497 1497 1497 1497 1498 1498 1499 1499 1500 1501 1501 1500 1500 1501 1503 1504 1505 1506 1508 1509 1510 1512 1513 1514 1516 1518 1520 1521 1522 1524 1524 1526 1528 1530 1532 1534 1536 1537 1539 1540 1541 1542
1461 1462 1468 1471 1470 1475 1480 1479 1478 1482 1489 1498 1503 1501 1499 1499 1497 1496 1497 1497 1497 1496 1495 1497 1499 1500 1501 1503 1504 1503 1503 1503 1503 1504 1504 1504 1503 1502 1502 1502 1501 1501 1502 1501 1499 1499 1500 1500 1500 1500 1501 1501 1502 1503 1503 1503 1503 1504 1505 1507 1507 1508 1509 1510 1511 1512 1514 1515 1517 1518 1520 1521 1522 1524 1525 1527 1529 1530 1532 1534 1535 1537 1538 1539 1540 1541
1460 1461 1468 1474 1475 1476 1478 1477 1482 1491 1498 1501 1501 1500 1500 1500 1499 1498 1497 1497 1498 1498 1497 1499 1501 1502 1503 1504 1505 1505 1504 1503 1504 1506 1507 1506 1506 1505 1504 1505 1505 1505 1505 1504 1502 1503 1504 1504 1503 1503 1503 1504 1505 1505 1505 1507 1507 1507 1507 1508 1508 1509 1511 1511 1512 1513 1515 1516 1518 1519 1521 1522 1523 1525 1526 1528 1529 1531 1532 1534 1535 1536 1537 1537 1539 1540
1461 1461 1465 1473 1480 1480 1479 1483 1489 1493 1497 1501 1502 1503 1504 1504 1504 1502 1499 1498 1500 1499 1499 1501 1502 1503 1504 1505 1506 1506 1504 1502 1505 1510 1511 1510 1509 1508 1508 1508 1508 1508 1508 1507 1506 1506 1507 1508 1508 1508 1508 1508 1508 1508 1509 1510 1510 1509 1510 1511 1511 1512 1513 1513 1513 1515 1516 1517 1519 1521 1522 1523 1524 1525 1527 1529 1530 1531 1532 1533 1535 1535 1536 1537 1538 1539
1464 1463 1463 1469 1480 1481 1477 1483 1489 1488 1492 1501 1504 1504 1506 1505 1505 1504 1501 1498 1500 1500 1500 1501 1502 1503 1505 1505 1506 1506 1504 1504 1509 1515 1515 1513 1511 1511 1511 1511 1512 1512 1512 1511 1509 1509 1510 1511 1511 1512 1512 1512 1512 1513 1514 1515 1514 1513 1513 1514 1514 1515 1515 1515 1516 1517 1518 1519 1521 1523 1524 1525 1526 1527 1528 1529 1531 1532 1533 1534 1535 1536 1537 1538 1538 1538
1467 1467 1465 1469 1481 1484 1480 1485 1492 1493 1498 1505 1505 1504 1504 1503 1504 1503 1498 1495 1499 1502 1502 1502 1503 1504 1505 1505 1506 1506 1505 1508 1514 1517 1516 1515 1514 1513 1513 1514 1514 1514 1515 1514 1513 1512 1512 1513 1514 1514 1515 1515 1515 1516 1518 1518 1518 1517 1516 1517 1518 1517 1517 1518 1519 1520 1521 1522 1523 1525 1526 1527 1528 1528 1529 1530 1531 1532 1533 1534 1535 1536 1537 1538 1538 1538
1473 1472 1472 1477 1486 1489 1488 1493 1499 1501 1504 1507 1505 1503 1502 1502 1503 1499 1491 1492 1500 1502 1502 1503 1504 1504 1505 1506 1506 1506 1505 1508 1513 1516 1516 1517 1516 1516 1516 1516 1516 1517 1517 1516 1516 1515 1515 1515 1515 1516 1517 1517 1517 1519 1520 1521 1521 1519 1519 1520 1520 1520 1520 1521 1522 1523 1524 1525 1526 1527 1528 1529 1529 1530 1531 1532 1532 1533 1534 1534 1535 1536 1537 1537 1538 1538
1484 1483 1484 1487 1490 1491 1491 1495 1501 1504 1506 1507 1505 1503 1502 1501 1498 1492 1491 1498 1503 1502 1502 1504 1504 1505 1507 1506 1506 1506 1507 1508 1511 1514 1517 1517 1517 1518 1518 1518 1518 1519 1519 1518 1518 1518 1517 1517 1517 1518 1518 1519 1520 1521 1521 1522 1522 1521 1522 1522 1521 1522 1522 1523 1524 1525 1526 1527 1528 1528 1529 1530 1531 1531 1532 1533 1533 1534 1534 1535 1536 1536 1537 1537 1538 1538
1491 1492 1493 1497 1500 1500 1498 1496 1497 1503 1508 1508 1504 1501 1500 1499 1495 1494 1499 1504 1503 1502 1504 1505 1506 1507 1507 1507 1507 1507 1508 1510 1512 1515 1517 1518 1519 1520 1520 1520 1520 1520 1520 1520 1520 1520 1519 1519 1519 1520 1520 1521 1522 1522 1523 1524 1523 1523 1523 1523 1523 1523 1524 1525 1526 1527 1528 1528 1529 1529 1530 1531 1531 1532 1532 1533 1534 1534 1535 1535 1536 1536 1536 1537 1537 1538
1496 1497 1501 1506 1508 1506 1502 1499 1499 1505 1509 1508 1504 1502 1502 1502 1501 1503 1505 1504 1502 1504 1506 1506 1507 1508 1508 1508 1509 1509 1510 1512 1514 1516 1518 1519 1520 1521 1521 1522 1522 1522 1522 1522 1522 1522 1522 1522 1522 1523 1523 1524 1524 1524 1524 1525 1525 1525 1525 1525 1525 1526 1526 1527 1528 1529 1529 1530 1530 1530 1531 1531 1532 1532 1532 1533 1533 1533 1534 1534 1535 1535 1535 1536 1536 1536
1499 1499 1503 1509 1509 1505 1505 1508 1511 1513 1513 1511 1508 1508 1508 1508 1507 1506 1506 1504 1504 1506 1506 1507 1508 1509 1508 1509 1510 1511 1512 1514 1515 1517 1519 1520 1522 1522 1523 1523 1523 1524 1524 1524 1524 1525 1524 1524 1524 1525 1525 1526 1526 1526 1526 1526 1527 1527 1527 1527 1528 1528 1528 1529 1529 1530 1531 1531 1531 1531 1531 1531 1532 1532 1532 1532 1532 1532 1532 1533 1533 1533 1534 1534 1534 1534
1504 1502 1503 1508 1511 1510 1511 1514 1516 1516 1515 1513 1512 1511 1511 1509 1508 1507 1506 1506 1507 1507 1507 1508 1509 1510 1510 1511 1511 1513 1514 1515 1517 1519 1520 1521 1522 1523 1524 1525 1526 1526 1526 1526 1527 1527 1527 1526 1527 1527 1527 1528 1528 1528 1528 1528 1529 1529 1529 1529 1530 1530 1530 1531 1531 1531 1532 1532 1532 1531 1531 1531 1531 1531 1531 1531 1531 1531 1531 1531 1531 1531 1531 1532 1532 1532
1507 1506 1505 1507 1511 1512 1513 1515 1516 1516 1516 1514 1513 1512 1511 1510 1509 1508 1507 1508 1508 1509 1510 1510 1510 1511 1513 1513 1514 1516 1517 1518 1519 1521 1522 1523 1524 1524 1525 1527 1527 1528 1528 1528 1529 1529 1529 1529 1530 1529 1529 1529 1530 1530 1530 1530 1530 1530 1530 1530 1531 1531 1531 1532 1532 1532 1532 1532 1531 1531 1531 1531 1530 1530 1530 1530 1530 1530 1530 1530 1530 1529 1529 1529 1529 1529
1507 1507 1507 1509 1511 1512 1514 1516 1517 1516 1516 1516 1515 1514 1513 1512 1511 1510 1509 1510 1510 1511 1512 1512 1513 1514 1515 1517 1518 1519 1519 1521 1522 1523 1524 1525 1525 1526 1527 1528 1529 1530 1530 1530 1531 1531 1531 1531 1532 1532 1531 1531 1531 1532 1532 1531 1531 1531 1531 1532 1532 1532 1532 1532 1532 1532 1531 1531 1530 1530 1530 1530 1529 1529 1528 1528 1528 1528 1528 1528 1528 1527 1527 1527 1527 1527
1507 1507 1509 1511 1512 1514 1516 1518 1518 1517 1518 1517 1516 1516 1516 1514 1514 1513 1512 1512 1512 1512 1514 1515 1516 1517 1518 1520 1521 1522 1523 1524 1525 1525 1526 1527 1527 1528 1529 1529 1530 1531 1531 1532 1533 1533 1533 1533 1533 1533 1533 1533 1534 1534 1533 1533 1533 1533 1533 1533 1533 1533 1534 1533 1533 1532 1531 1531 1530 1530 1530 1529 1529 1529 1528 1528 1528 1528 1527 1527 1526 1525 1525 1525 1525 1525
1509 1509 1511 1513 1514 1516 1518 1519 1518 1518 1519 1519 1518 1518 1518 1517 1516 1516 1515 1515 1515 1516 1517 1518 1519 1520 1521 1522 1524 1525 1526 1527 1527 1528 1528 1529 1529 1530 1530 1531 1532 1532 1533 1533 1534 1534 1534 1534 1534 1535 1535 1535 1535 1535 1535 1535 1534 1535 1535 1535 1534 1535 1535 1534 1534 1533 1533 1532 1532 1531 1530 1530 1530 1529 1529 1529 1528 1528 1527 1527 1526 1525 1524 1524 1524 1524
1510 1511 1514 1513 1513 1516 1517 1518 1518 1518 1520 1521 1521 1520 1520 1519 1519 1518 1518 1518 1519 1519 1520 1521 1522 1523 1524 1525 1526 1527 1528 1529 1529 1530 1530 1530 1531 1531 1531 1532 1532 1533 1534 1534 1535 1535 1536 1535 1536 1536 1536 1536 1537 1537 1537 1537 1536 1536 1536 1536 1535 1535 1535 1535 1535 1534 1533 1533 1532 1532 1531 1531 1530 1530 1529 1529 1528 1527 1527 1526 1525 1525 1524 1524 1523 1523
1513 1514 1514 1513 1513 1516 1517 1518 1518 1519 1520 1522 1522 1522 1522 1522 1521 1521 1521 1521 1521 1522 1523 1524 1524 1525 1526 1527 1528 1529 1529 1530 1530 1531 1532 1532 1532 1532 1533 1533 1533 1534 1535 1535 1536 1536 1537 1537 1537 1538 1538 1538 1538 1538 1538 1538 1538 1537 1537 1536 1536 1536 1535 1535 1534 1534 1533 1532 1531 1531 1530 1530 1529 1529 1529 1528 1528 1528 1527 1526 1526 1525 1524 1523 1523 1522